Location: Chuathbaluk
(61.5726°N, 159.2454°W)
Time: 11:59:10
(UTC+00:00)

Transit 2A Rocket - Visible Passes

Search period start: 30 November 2020 00:00
Search period end: 10 December 2020 00:00
Orbit: 588 x 914 km, 66.7° (Epoch: 29 November)

Date Brightness Start Highest point End Pass type
(mag) Time Alt. Az. Time Alt. Az. Time Alt. Az.
30 Nov 7.7 12:57:53 15° ENE 12:57:53 15° ENE 12:58:48 10° ENE visible
30 Nov 5.9 14:37:48 46° NE 14:37:48 46° NE 14:41:27 10° ENE visible
30 Nov 5.4 16:17:42 37° NW 16:19:22 49° N 16:24:18 10° ENE visible
30 Nov 5.2 17:57:36 11° WNW 18:02:41 59° NNE 18:07:29 10° E visible
01 Dec 6.8 13:56:26 29° NE 13:56:26 29° NE 13:58:50 10° NE visible
01 Dec 5.3 15:36:20 52° NNW 15:36:34 53° NNW 15:41:34 10° ENE visible
01 Dec 5.3 17:16:14 19° WNW 17:19:54 53° NNE 17:24:42 10° E visible
02 Dec 7.5 13:15:03 17° ENE 13:15:03 17° ENE 13:16:13 10° NE visible
02 Dec 5.7 14:54:57 47° NNE 14:54:57 47° NNE 14:58:52 10° ENE visible
02 Dec 5.4 16:34:52 31° NW 16:37:06 49° N 16:41:55 10° E visible
02 Dec 4.9 18:14:56 10° WNW 18:20:14 79° NNE 18:25:00 10° ESE visible
03 Dec 6.6 14:13:34 31° NE 14:13:34 31° NE 14:16:13 10° ENE visible
03 Dec 5.4 15:53:28 45° NNW 15:54:17 49° N 15:59:08 10° ENE visible
03 Dec 5.1 17:33:22 16° WNW 17:37:32 65° NNE 17:42:19 10° ESE visible
04 Dec 7.4 13:32:11 19° NE 13:32:11 19° NE 13:33:35 10° ENE visible
04 Dec 5.6 15:12:05 47° NNE 15:12:05 47° NNE 15:16:22 10° ENE visible
04 Dec 5.2 16:51:59 26° NW 16:54:47 56° NNE 16:59:33 10° E visible
04 Dec 5.0 18:32:27 10° NW 18:37:36 70° SW 18:42:16 10° SE visible
05 Dec 7.9 12:50:47 11° NE 12:50:47 11° NE 12:50:58 10° NE visible
05 Dec 6.4 14:30:41 34° NE 14:30:41 34° NE 14:33:39 10° ENE visible
05 Dec 5.4 16:10:35 40° NW 16:12:00 51° N 16:16:46 10° E visible
05 Dec 4.8 17:50:29 14° NW 17:55:01 90° NNW 17:59:44 10° SE visible
06 Dec 7.2 13:49:16 21° NE 13:49:16 21° NE 13:50:59 10° ENE visible
06 Dec 5.4 15:29:11 48° N 15:29:11 48° N 15:33:59 10° ENE visible
06 Dec 4.9 17:09:05 23° NW 17:12:22 73° NNE 17:17:06 10° ESE visible
07 Dec 7.8 13:07:53 13° ENE 13:07:53 13° ENE 13:08:20 10° ENE visible
07 Dec 6.1 14:47:47 38° NE 14:47:47 38° NE 14:51:11 10° ENE visible
07 Dec 5.1 16:27:41 36° NW 16:29:39 61° NNE 16:34:23 10° ESE visible
07 Dec 5.1 18:07:35 11° WNW 18:12:18 58° SW 18:16:50 10° SSE visible
08 Dec 7.0 14:06:24 24° NE 14:06:24 24° NE 14:08:27 10° ENE visible
08 Dec 5.2 15:46:18 51° NNW 15:46:53 54° NNE 15:51:36 10° E visible
08 Dec 4.8 17:26:12 20° WNW 17:29:46 77° SW 17:34:25 10° SE visible
09 Dec 7.7 13:25:01 14° ENE 13:25:01 14° ENE 13:25:45 10° ENE visible
09 Dec 5.7 15:04:55 45° NE 15:04:55 45° NE 15:08:49 10° E visible
09 Dec 4.8 16:44:49 33° NW 16:47:09 83° NNE 16:51:51 10° ESE visible
09 Dec 5.7 18:24:54 10° WNW 18:29:21 33° WSW 18:33:28 10° S visible
